This is the latest recevied weather packets stored in our database for station/object 5B4APJ-13. If no packets are shown the sender has not sent any weather packets the latest 10 day(s).
| Time | Temp. | Humidity | Pressure | Rain* | Wind** | Luminosity | Snow |
|---|---|---|---|---|---|---|---|
| 1777834626 | 11.67° C | 67% | 1009.5 hPa | 0 mm | 1.34 m/s, 215° | 0 W/m² | - |
| 1777834326 | 11.67° C | 67% | 1009.4 hPa | 0 mm | 1.34 m/s, 217° | 0 W/m² | - |
| 1777834025 | 11.67° C | 67% | 1009.2 hPa | 0 mm | 2.68 m/s, 254° | 0 W/m² | - |
| 1777833726 | 11.67° C | 67% | 1009.5 hPa | 0 mm | 2.68 m/s, 179° | 0 W/m² | - |
| 1777833425 | 12.22° C | 66% | 1009.5 hPa | 0 mm | 0.89 m/s, 235° | 0 W/m² | - |
| 1777833126 | 12.22° C | 66% | 1009.1 hPa | 0 mm | 2.68 m/s, 262° | 0 W/m² | - |
| 1777832826 | 12.22° C | 66% | 1009.5 hPa | 0 mm | 1.34 m/s, 243° | 0 W/m² | - |
| 1777832526 | 12.22° C | 66% | 1009.3 hPa | 0 mm | 1.79 m/s, 201° | 0 W/m² | - |
| 1777832227 | 12.22° C | 66% | 1009.3 hPa | 0 mm | 1.34 m/s, 175° | 0 W/m² | - |
| 1777831926 | 12.22° C | 66% | 1009.3 hPa | 0 mm | 1.79 m/s, 248° | 0 W/m² | - |
| 1777831626 | 12.22° C | 65% | 1009.1 hPa | 0 mm | 0.45 m/s, 137° | 0 W/m² | - |
| 1777831326 | 12.22° C | 66% | 1009 hPa | 0 mm | 0.89 m/s, 237° | 0 W/m² | - |
| 1777831026 | 12.22° C | 66% | 1009.1 hPa | 0 mm | 1.34 m/s, 210° | 0 W/m² | - |
| 1777830726 | 12.22° C | 66% | 1009.1 hPa | 0 mm | 0.89 m/s, 242° | 0 W/m² | - |
| 1777830425 | 12.22° C | 66% | 1009.1 hPa | 0 mm | 0.89 m/s, 220° | 0 W/m² | - |
| 1777830126 | 12.78° C | 65% | 1008.9 hPa | 0 mm | 1.34 m/s, 243° | 0 W/m² | - |
| 1777829826 | 12.78° C | 65% | 1008.5 hPa | 0 mm | 1.79 m/s, 256° | 0 W/m² | - |
| 1777829526 | 12.78° C | 65% | 1008.5 hPa | 0 mm | 0.89 m/s, 224° | 0 W/m² | - |
| 1777829226 | 12.78° C | 64% | 1008.6 hPa | 0 mm | 4.02 m/s, 249° | 0 W/m² | - |
| 1777828926 | 12.78° C | 65% | 1008.8 hPa | 0 mm | 1.34 m/s, 224° | 0 W/m² | - |
| 1777828626 | 12.78° C | 67% | 1008.4 hPa | 0 mm | 2.68 m/s, 257° | 0 W/m² | - |
| 1777828326 | 12.78° C | 66% | 1008.5 hPa | 0 mm | 0.89 m/s, 220° | 0 W/m² | - |
| 1777827725 | 12.78° C | 65% | 1008.4 hPa | 0 mm | 3.13 m/s, 252° | 0 W/m² | - |
| 1777827426 | 12.78° C | 65% | 1008.3 hPa | 0 mm | 3.58 m/s, 215° | 0 W/m² | - |
| 1777827125 | 12.78° C | 65% | 1008.5 hPa | 0 mm | 1.79 m/s, 212° | 0 W/m² | - |
* Rain latest hour (hover to see other rain measurements)
** Current wind speed in m/s (hover to see current wind gust speed)